TimeEST,TemperatureF,Dew PointF,Humidity,Sea Level PressureIn,VisibilityMPH,Wind Direction,Wind SpeedMPH,Gust SpeedMPH,PrecipitationIn,Events,Conditions,WindDirDegrees,DateUTC
12:56 AM,34.0,32.0,92,30.27,4.0,North,3.5,-,N/A,,Overcast,360,2013-12-09 05:56:00
1:40 AM,34.0,32.0,92,30.24,9.0,Calm,Calm,-,N/A,,Overcast,0,2013-12-09 06:40:00
1:56 AM,34.0,33.1,96,30.26,5.0,West,3.5,-,N/A,,Overcast,270,2013-12-09 06:56:00
2:12 AM,34.0,33.1,96,30.23,4.0,Calm,Calm,-,N/A,,Overcast,0,2013-12-09 07:12:00
2:33 AM,34.0,33.1,96,30.24,2.5,WNW,3.5,-,N/A,,Overcast,290,2013-12-09 07:33:00
2:45 AM,34.0,33.1,96,30.24,3.0,WNW,4.6,-,N/A,,Overcast,300,2013-12-09 07:45:00
2:56 AM,34.0,33.1,96,30.25,3.0,Calm,Calm,-,N/A,,Overcast,0,2013-12-09 07:56:00
3:46 AM,34.0,33.1,96,30.23,2.5,Calm,Calm,-,N/A,,Overcast,0,2013-12-09 08:46:00
3:56 AM,34.0,34.0,100,30.23,2.0,Calm,Calm,-,N/A,,Overcast,0,2013-12-09 08:56:00
4:10 AM,34.0,34.0,100,30.21,1.5,Calm,Calm,-,N/A,,Overcast,0,2013-12-09 09:10:00
4:56 AM,35.1,34.0,96,30.19,1.2,Calm,Calm,-,N/A,,Overcast,0,2013-12-09 09:56:00
5:12 AM,35.1,34.0,96,30.17,0.8,Calm,Calm,-,N/A,,Mist,0,2013-12-09 10:12:00
5:21 AM,35.1,34.0,96,30.18,1.0,SE,3.5,-,N/A,,Mist,130,2013-12-09 10:21:00
5:47 AM,35.1,34.0,96,30.21,2.0,West,5.8,-,N/A,,Overcast,280,2013-12-09 10:47:00
5:56 AM,35.1,34.0,96,30.22,1.5,Variable,4.6,-,N/A,,Overcast,0,2013-12-09 10:56:00
6:40 AM,35.1,34.0,96,30.20,2.0,Calm,Calm,-,N/A,,Overcast,0,2013-12-09 11:40:00
6:56 AM,35.1,34.0,96,30.19,2.5,Calm,Calm,-,N/A,,Overcast,0,2013-12-09 11:56:00
7:11 AM,35.1,34.0,96,30.18,3.0,Calm,Calm,-,N/A,,Overcast,0,2013-12-09 12:11:00
7:18 AM,35.1,34.0,96,30.19,2.5,Calm,Calm,-,N/A,,Overcast,0,2013-12-09 12:18:00
7:26 AM,35.1,34.0,96,30.18,3.0,Calm,Calm,-,N/A,,Overcast,0,2013-12-09 12:26:00
7:37 AM,35.1,34.0,96,30.18,2.0,Calm,Calm,-,N/A,,Overcast,0,2013-12-09 12:37:00
7:48 AM,35.1,34.0,96,30.18,1.8,Calm,Calm,-,N/A,,Overcast,0,2013-12-09 12:48:00
7:56 AM,35.1,34.0,96,30.18,1.8,SSE,3.5,-,0.00,Rain,Light Rain,160,2013-12-09 12:56:00
8:14 AM,36.0,35.1,97,30.17,2.5,Variable,3.5,-,0.00,Rain,Light Rain,0,2013-12-09 13:14:00
8:27 AM,36.0,35.1,97,30.18,3.0,Calm,Calm,-,0.00,Rain,Light Rain,0,2013-12-09 13:27:00
8:44 AM,36.0,35.1,97,30.18,2.5,West,3.5,-,0.00,Rain,Light Rain,270,2013-12-09 13:44:00
8:56 AM,36.0,35.1,97,30.19,1.8,Calm,Calm,-,0.01,Rain,Light Rain,0,2013-12-09 13:56:00
9:11 AM,36.0,36.0,100,30.18,2.0,Calm,Calm,-,0.00,,Overcast,0,2013-12-09 14:11:00
9:28 AM,37.0,36.0,96,30.19,3.0,West,3.5,-,0.00,,Overcast,270,2013-12-09 14:28:00
9:56 AM,37.0,36.0,96,30.20,2.0,Calm,Calm,-,0.00,,Overcast,0,2013-12-09 14:56:00
10:03 AM,37.0,36.0,96,30.19,1.5,Calm,Calm,-,0.00,Rain,Light Rain,0,2013-12-09 15:03:00
10:33 AM,37.0,36.0,96,30.18,2.5,Calm,Calm,-,0.01,Rain,Light Rain,0,2013-12-09 15:33:00
10:41 AM,37.9,37.0,97,30.17,4.0,Calm,Calm,-,0.01,,Overcast,0,2013-12-09 15:41:00
10:56 AM,37.9,37.0,97,30.17,4.0,Calm,Calm,-,0.01,,Overcast,0,2013-12-09 15:56:00
11:10 AM,37.9,37.0,97,30.16,2.0,SSE,3.5,-,0.01,Rain,Light Rain,160,2013-12-09 16:10:00
11:34 AM,39.0,37.0,93,30.15,6.0,West,3.5,-,0.02,Rain,Light Rain,280,2013-12-09 16:34:00
11:56 AM,39.0,37.9,96,30.15,8.0,Calm,Calm,-,0.02,,Overcast,0,2013-12-09 16:56:00
12:48 PM,39.9,39.0,97,30.14,2.0,Variable,3.5,-,0.00,,Overcast,0,2013-12-09 17:48:00
12:56 PM,39.9,39.0,97,30.13,2.0,Calm,Calm,-,0.00,,Overcast,0,2013-12-09 17:56:00
1:04 PM,39.9,39.9,100,30.12,1.5,Calm,Calm,-,0.01,Rain,Light Rain,0,2013-12-09 18:04:00
1:24 PM,41.0,39.9,96,30.12,2.0,Variable,3.5,-,0.01,Rain,Light Rain,0,2013-12-09 18:24:00
1:56 PM,41.0,39.9,96,30.11,4.0,Calm,Calm,-,0.02,Rain,Light Rain,0,2013-12-09 18:56:00
2:56 PM,42.1,41.0,96,30.11,10.0,Calm,Calm,-,0.01,,Overcast,0,2013-12-09 19:56:00
3:48 PM,43.0,42.1,97,30.09,7.0,Calm,Calm,-,0.01,Rain,Light Rain,0,2013-12-09 20:48:00
3:56 PM,43.0,42.1,97,30.11,9.0,Variable,3.5,-,0.01,,Overcast,0,2013-12-09 20:56:00
4:30 PM,43.0,42.1,97,30.09,5.0,Calm,Calm,-,0.01,Rain,Light Rain,0,2013-12-09 21:30:00
4:56 PM,43.0,42.1,97,30.11,7.0,Calm,Calm,-,0.02,Rain,Light Rain,0,2013-12-09 21:56:00
5:21 PM,44.1,42.1,93,30.10,5.0,Calm,Calm,-,0.01,Rain,Light Rain,0,2013-12-09 22:21:00
5:32 PM,43.0,42.1,97,30.10,4.0,Calm,Calm,-,0.02,Rain,Light Rain,0,2013-12-09 22:32:00
5:39 PM,44.1,42.1,93,30.09,5.0,Calm,Calm,-,0.02,Rain,Light Rain,0,2013-12-09 22:39:00
5:56 PM,44.1,42.1,93,30.10,5.0,Calm,Calm,-,0.04,Rain,Light Rain,0,2013-12-09 22:56:00
6:09 PM,44.1,42.1,93,30.11,4.0,Calm,Calm,-,0.01,Rain,Light Rain,0,2013-12-09 23:09:00
6:23 PM,44.1,42.1,93,30.12,4.0,Calm,Calm,-,0.03,Rain,Rain,0,2013-12-09 23:23:00
6:56 PM,44.1,43.0,96,30.11,5.0,Variable,3.5,-,0.06,Rain,Light Rain,0,2013-12-09 23:56:00
7:09 PM,44.1,43.0,96,30.11,6.0,Calm,Calm,-,0.00,Rain,Light Rain,0,2013-12-10 00:09:00
7:24 PM,44.1,43.0,96,30.11,6.0,Calm,Calm,-,0.00,Rain,Light Rain,0,2013-12-10 00:24:00
7:38 PM,44.1,43.0,96,30.11,8.0,Calm,Calm,-,0.00,,Overcast,0,2013-12-10 00:38:00
7:52 PM,44.6,42.8,93,30.11,7.0,Calm,Calm,-,0.00,,Overcast,0,2013-12-10 00:52:00
7:56 PM,45.0,43.0,93,30.12,7.0,Calm,Calm,-,0.00,Rain,Light Rain,0,2013-12-10 00:56:00
8:13 PM,44.1,43.0,96,30.11,6.0,Calm,Calm,-,0.00,,Overcast,0,2013-12-10 01:13:00
8:20 PM,44.1,43.0,96,30.11,6.0,Calm,Calm,-,0.00,,Overcast,0,2013-12-10 01:20:00
8:56 PM,45.0,43.0,93,30.12,7.0,Calm,Calm,-,0.00,,Overcast,0,2013-12-10 01:56:00
9:17 PM,45.0,43.0,93,30.10,8.0,Calm,Calm,-,N/A,,Overcast,0,2013-12-10 02:17:00
9:30 PM,45.0,43.0,93,30.11,7.0,Calm,Calm,-,N/A,,Overcast,0,2013-12-10 02:30:00
9:56 PM,45.0,43.0,93,30.11,7.0,Calm,Calm,-,N/A,,Overcast,0,2013-12-10 02:56:00
10:16 PM,45.0,44.1,97,30.10,6.0,Calm,Calm,-,0.00,Rain,Light Rain,0,2013-12-10 03:16:00
10:44 PM,45.0,44.1,97,30.10,5.0,Calm,Calm,-,0.00,,Mostly Cloudy,0,2013-12-10 03:44:00
10:56 PM,45.0,44.1,97,30.10,5.0,Calm,Calm,-,0.00,,Overcast,0,2013-12-10 03:56:00
11:40 PM,44.1,43.0,96,30.07,2.5,Calm,Calm,-,N/A,,Mostly Cloudy,0,2013-12-10 04:40:00
11:49 PM,44.1,43.0,96,30.07,3.0,Calm,Calm,-,N/A,,Mostly Cloudy,0,2013-12-10 04:49:00
11:56 PM,44.1,43.0,96,30.08,2.5,Calm,Calm,-,N/A,,Overcast,0,2013-12-10 04:56:00